FW8327 Weather Reports


Display with metric or nautical units.
time (UTC)temp
F
wind
direction
speed
MPH
gust
MPH
rain 1hr
in
rain 24hr
in
rain mn
in
humidity
%
barometer
mb
20260904034624 78 136 0.0 0.0 0.00 0.00 0.00 90 1013.8
20260904034120 78 156 0.0 0.0 0.00 0.00 0.00 91 1013.7
20260904033615 78 167 0.0 0.0 0.00 0.00 0.00 90 1013.9
20260904033113 78 155 0.0 0.0 0.00 0.00 0.00 90 1013.9
20260904032608 78 130 0.0 0.0 0.00 0.00 0.00 90 1013.7
20260904032107 78 137 0.0 0.0 0.00 0.00 0.00 90 1013.8
20260904031606 78 143 0.0 0.0 0.00 0.00 0.00 91 1013.7
20260904031103 78 150 0.0 0.0 0.00 0.00 0.00 92 1013.7
20260904030558 78 148 0.0 0.0 0.00 0.00 0.00 93 1013.7
20260904030053 77 148 0.0 0.0 0.00 0.00 0.00 93 1014.1
20260904025549 77 148 0.0 0.0 0.00 0.00 0.00 94 1014.0
20260904025044 77 148 0.0 0.0 0.00 0.00 0.00 93 1014.0
20260904024539 77 148 0.0 0.0 0.00 0.00 0.00 92 1014.0
20260904024035 77 148 0.0 0.0 0.00 0.00 0.00 91 1013.9
20260904023531 78 148 0.0 0.0 0.00 0.00 0.00 90 1014.0
20260904023026 78 148 0.0 0.0 0.00 0.00 0.00 90 1014.1
20260904022521 79 148 0.0 0.0 0.00 0.00 0.00 90 1014.1
20260904022018 79 148 0.0 0.0 0.00 0.00 0.00 89 1013.9
20260904021514 79 148 0.0 0.0 0.00 0.00 0.00 88 1013.6
20260904021009 79 148 0.0 0.0 0.00 0.00 0.00 87 1013.8
20260904020508 80 148 0.0 0.0 0.00 0.00 0.00 86 1013.8
20260904020003 80 148 0.0 0.0 0.00 0.00 0.00 85 1013.9
20260904015458 80 145 0.0 0.0 0.00 0.00 0.00 85 1013.9
20260904014956 80 140 0.0 0.0 0.00 0.00 0.00 85 1013.9
20260904014451 80 140 0.0 0.0 0.00 0.00 0.00 84 1013.7
20260904013947 80 140 0.0 0.0 0.00 0.00 0.00 84 1013.7
20260904013443 80 138 0.0 0.0 0.00 0.00 0.00 84 1013.8
20260904012939 80 142 0.0 0.0 0.00 0.00 0.00 84 1013.8
20260904012438 80 142 0.0 0.0 0.00 0.00 0.00 83 1013.7
20260904011933 80 141 0.0 0.0 0.00 0.00 0.00 82 1013.8
20260904011427 81 141 0.0 0.0 0.00 0.00 0.00 81 1013.7
20260904010922 81 140 0.0 0.0 0.00 0.00 0.00 79 1013.6
20260904010414 81 142 0.0 0.0 0.00 0.00 0.00 79 1013.7
20260904005908 81 142 0.0 0.0 0.00 0.00 0.00 79 1013.7
20260904005404 82 142 0.0 0.0 0.00 0.00 0.00 78 1013.6
20260904004858 82 134 0.0 0.0 0.00 0.00 0.00 78 1013.7
20260904004355 81 120 0.0 0.0 0.00 0.00 0.00 79 1013.8
20260904003849 82 105 0.0 0.0 0.00 0.00 0.00 80 1013.8
20260904003345 82 53 0.0 0.0 0.00 0.00 0.00 79 1013.6
20260904002840 83 55 0.0 0.0 0.00 0.00 0.00 80 1013.6
20260904002337 84 37 0.0 0.0 0.00 0.00 0.00 81 1013.4
20260904001836 83 322 0.0 0.0 0.00 0.00 0.00 83 1013.6
20260904001331 83 129 0.0 0.0 0.00 0.00 0.00 84 1013.4
20260904000826 86 63 0.0 0.0 0.00 0.00 0.00 79 1013.1
20260904000325 87 163 0.0 0.0 0.00 0.00 0.00 74 1013.1
20260903235820 88 154 0.0 0.0 0.00 0.00 0.00 72 1013.0
20260903235317 89 172 0.0 0.0 0.00 0.00 0.00 71 1012.9
20260903234815 89 160 0.0 0.0 0.00 0.00 0.00 71 1013.0
20260903234312 90 155 0.0 0.0 0.00 0.00 0.00 70 1013.1
20260903233808 90 160 0.0 0.0 0.00 0.00 0.00 69 1012.9
20260903233304 90 165 0.0 0.0 0.00 0.00 0.00 68 1012.8
20260903232803 90 162 0.0 0.0 0.00 0.00 0.00 70 1012.9
20260903232259 90 151 0.0 0.0 0.00 0.00 0.00 68 1013.1
20260903231758 91 170 0.0 0.0 0.00 0.00 0.00 67 1012.9
20260903231253 91 173 0.0 0.0 0.00 0.00 0.00 67 1012.8
20260903230748 91 189 0.0 0.0 0.00 0.00 0.00 67 1012.9
20260903230248 91 205 0.0 0.0 0.00 0.00 0.00 67 1012.8
20260903225744 91 209 0.0 0.0 0.00 0.00 0.00 67 1012.7
20260903225241 91 200 0.0 0.0 0.00 0.00 0.00 66 1012.7
20260903224737 92 162 0.0 0.0 0.00 0.00 0.00 65 1012.5
20260903224233 92 202 0.0 0.0 0.00 0.00 0.00 64 1012.4
20260903223728 92 211 0.0 0.0 0.00 0.00 0.00 63 1012.4
20260903223226 92 168 0.0 0.0 0.00 0.00 0.00 63 1012.4
20260903222721 92 250 0.0 0.0 0.00 0.00 0.00 63 1012.3
20260903222220 92 219 0.0 0.0 0.00 0.00 0.00 64 1012.2
20260903221715 92 167 0.0 0.0 0.00 0.00 0.00 66 1012.5
20260903221214 93 243 0.0 2.0 0.00 0.00 0.00 64 1012.7
20260903220713 93 190 0.0 0.0 0.00 0.00 0.00 64 1012.5
20260903220208 93 184 0.0 1.0 0.00 0.00 0.00 63 1012.5
20260903215707 93 166 0.0 0.0 0.00 0.00 0.00 62 1012.5
20260903215202 92 233 0.0 0.0 0.00 0.00 0.00 64 1012.4
20260903214700 93 267 1.0 1.0 0.00 0.00 0.00 63 1012.5
20260903214156 93 243 0.0 0.0 0.00 0.00 0.00 63 1012.4
20260903213650 93 172 0.0 0.0 0.00 0.00 0.00 63 1012.4
20260903213147 93 221 0.0 0.0 0.00 0.00 0.00 61 1012.4
20260903212642 93 173 0.0 0.0 0.00 0.00 0.00 64 1012.7
20260903212138 93 248 0.0 0.0 0.00 0.00 0.00 64 1012.5
20260903211632 93 193 0.0 0.0 0.00 0.00 0.00 63 1012.7
20260903211129 94 155 0.0 0.0 0.00 0.00 0.00 64 1012.5
20260903210624 94 190 0.0 0.0 0.00 0.00 0.00 63 1012.6
20260903210120 93 158 0.0 0.0 0.00 0.00 0.00 63 1012.7
20260903205619 94 136 0.0 0.0 0.00 0.00 0.00 62 1012.4
20260903205113 93 164 0.0 0.0 0.00 0.00 0.00 64 1012.6
20260903204608 93 164 0.0 0.0 0.00 0.00 0.00 64 1012.6
20260903204104 94 266 1.0 2.0 0.00 0.00 0.00 61 1012.5
20260903203559 94 161 0.0 0.0 0.00 0.00 0.00 61 1012.5
20260903203054 94 140 0.0 0.0 0.00 0.00 0.00 64 1012.5
20260903202550 93 174 0.0 0.0 0.00 0.00 0.00 66 1012.5
20260903202045 93 250 1.0 2.0 0.00 0.00 0.00 64 1012.4
20260903201539 93 236 0.0 1.0 0.00 0.00 0.00 64 1012.5
20260903201039 94 235 0.0 0.0 0.00 0.00 0.00 61 1012.8
20260903200534 94 131 0.0 0.0 0.00 0.00 0.00 60 1012.7
20260903200029 95 254 0.0 0.0 0.00 0.00 0.00 60 1012.8
20260903195525 94 166 0.0 0.0 0.00 0.00 0.00 60 1012.8
20260903195020 95 259 0.0 0.0 0.00 0.00 0.00 62 1013.1
20260903194515 95 151 0.0 0.0 0.00 0.00 0.00 63 1013.1
20260903194010 94 159 0.0 0.0 0.00 0.00 0.00 60 1013.2
20260903193506 93 250 0.0 0.0 0.00 0.00 0.00 61 1013.4
20260903193000 93 270 2.0 2.0 0.00 0.00 0.00 60 1013.4
20260903192453 94 260 1.0 2.0 0.00 0.00 0.00 59 1013.5
20260903191947 94 221 0.0 1.0 0.00 0.00 0.00 59 1013.6
20260903191444 95 229 0.0 0.0 0.00 0.00 0.00 58 1013.7
20260903190942 93 199 0.0 0.0 0.00 0.00 0.00 61 1013.7
20260903190437 93 259 0.0 0.0 0.00 0.00 0.00 63 1014.0
20260903185931 94 269 1.0 2.0 0.00 0.00 0.00 58 1014.0
20260903185427 93 198 0.0 0.0 0.00 0.00 0.00 60 1013.9
20260903184921 94 240 0.0 1.0 0.00 0.00 0.00 61 1013.9
20260903184419 94 157 0.0 0.0 0.00 0.00 0.00 62 1014.0
20260903183918 94 247 0.0 1.0 0.00 0.00 0.00 59 1014.0
20260903183413 94 174 0.0 0.0 0.00 0.00 0.00 62 1014.1
20260903182912 94 222 0.0 0.0 0.00 0.00 0.00 61 1013.9
20260903182411 93 194 0.0 0.0 0.00 0.00 0.00 61 1013.9
20260903181907 94 203 0.0 0.0 0.00 0.00 0.00 60 1013.8
20260903181401 94 241 1.0 3.0 0.00 0.00 0.00 59 1014.0
20260903180900 93 165 0.0 0.0 0.00 0.00 0.00 64 1013.9
20260903180355 93 163 0.0 1.0 0.00 0.00 0.00 63 1013.9
20260903175855 93 180 0.0 0.0 0.00 0.00 0.00 62 1014.0
20260903175349 94 163 0.0 0.0 0.00 0.00 0.00 61 1013.9
20260903174843 93 168 0.0 0.0 0.00 0.00 0.00 63 1014.0
20260903174338 93 166 1.0 2.0 0.00 0.00 0.00 61 1014.0
20260903173832 93 164 0.0 0.0 0.00 0.00 0.00 62 1014.1
20260903173328 93 238 0.0 0.0 0.00 0.00 0.00 65 1014.3
20260903172824 93 151 0.0 0.0 0.00 0.00 0.00 62 1014.3
20260903172318 93 185 0.0 0.0 0.00 0.00 0.00 61 1014.3
20260903171808 93 199 0.0 0.0 0.00 0.00 0.00 63 1014.2
20260903171303 93 148 0.0 2.0 0.00 0.00 0.00 62 1014.3
20260903170756 92 171 0.0 0.0 0.00 0.00 0.00 63 1014.2
20260903170252 92 235 0.0 0.0 0.00 0.00 0.00 63 1014.4
20260903165750 92 162 0.0 0.0 0.00 0.00 0.00 62 1014.3
20260903165245 91 192 0.0 0.0 0.00 0.00 0.00 64 1014.5
20260903164744 91 248 1.0 2.0 0.00 0.00 0.00 64 1014.5
20260903164241 91 189 0.0 0.0 0.00 0.00 0.00 64 1014.5
20260903163734 92 265 2.0 4.0 0.00 0.00 0.00 63 1014.6
20260903163231 91 179 0.0 0.0 0.00 0.00 0.00 65 1014.7
20260903162727 91 176 0.0 1.0 0.00 0.00 0.00 67 1014.7
20260903162222 92 175 0.0 0.0 0.00 0.00 0.00 66 1014.9
20260903161718 92 226 0.0 0.0 0.00 0.00 0.00 69 1015.0
20260903161213 91 249 0.0 0.0 0.00 0.00 0.00 68 1014.7
20260903160709 90 180 0.0 0.0 0.00 0.00 0.00 67 1014.9
20260903160202 89 141 0.0 0.0 0.00 0.00 0.00 70 1015.1
20260903155701 89 236 0.0 1.0 0.00 0.00 0.00 72 1014.9
20260903155156 89 259 1.0 2.0 0.00 0.00 0.00 71 1014.9
20260903154652 90 262 2.0 3.0 0.00 0.00 0.00 69 1015.0
20260903154148 89 193 0.0 0.0 0.00 0.00 0.00 71 1015.1
20260903153643 89 247 0.0 2.0 0.00 0.00 0.00 70 1015.0
20260903153139 89 275 1.0 2.0 0.00 0.00 0.00 71 1015.1
20260903152635 90 262 0.0 0.0 0.00 0.00 0.00 71 1015.1
20260903152131 89 164 0.0 0.0 0.00 0.00 0.00 73 1014.8
20260903151630 89 149 0.0 0.0 0.00 0.00 0.00 72 1014.8
20260903151125 88 218 0.0 0.0 0.00 0.00 0.00 73 1014.8
20260903150620 88 198 0.0 0.0 0.00 0.00 0.00 75 1014.8
20260903150115 87 261 0.0 1.0 0.00 0.00 0.00 74 1014.8
20260903145614 88 270 1.0 2.0 0.00 0.00 0.00 72 1014.9
20260903145110 87 289 0.0 0.0 0.00 0.00 0.00 73 1014.9
20260903144608 87 273 0.0 2.0 0.00 0.00 0.00 73 1014.9
20260903144105 86 176 0.0 0.0 0.00 0.00 0.00 75 1014.8
20260903143601 87 167 0.0 0.0 0.00 0.00 0.00 75 1014.9
20260903143056 86 204 0.0 0.0 0.00 0.00 0.00 75 1014.7
20260903142551 86 161 0.0 0.0 0.00 0.00 0.00 75 1014.9
20260903142049 86 190 0.0 0.0 0.00 0.00 0.00 76 1014.6
20260903141549 86 243 0.0 0.0 0.00 0.00 0.00 76 1014.8
20260903141044 86 236 0.0 1.0 0.00 0.00 0.00 74 1014.8
20260903140540 86 215 0.0 0.0 0.00 0.00 0.00 77 1014.9
20260903140035 85 188 0.0 0.0 0.00 0.00 0.00 79 1014.8
20260903135530 84 209 0.0 0.0 0.00 0.00 0.00 77 1014.8
20260903135025 84 213 0.0 0.0 0.00 0.00 0.00 78 1015.0
20260903134524 84 139 0.0 0.0 0.00 0.00 0.00 78 1014.9
20260903134021 84 163 0.0 0.0 0.00 0.00 0.00 80 1015.1
20260903133518 83 244 0.0 0.0 0.00 0.00 0.00 80 1015.0
20260903133014 84 254 0.0 0.0 0.00 0.00 0.00 80 1014.9
20260903132514 84 164 0.0 0.0 0.00 0.00 0.00 81 1015.0
20260903132009 84 131 0.0 0.0 0.00 0.00 0.00 81 1015.2
20260903131504 83 158 0.0 0.0 0.00 0.00 0.00 82 1015.1
20260903131002 82 152 0.0 0.0 0.00 0.00 0.00 83 1015.1
20260903130458 82 153 0.0 0.0 0.00 0.00 0.00 84 1015.3
20260903125956 81 156 0.0 0.0 0.00 0.00 0.00 84 1015.2
20260903125450 81 151 0.0 0.0 0.00 0.00 0.00 85 1015.4
20260903124945 80 161 0.0 0.0 0.00 0.00 0.00 86 1015.3
20260903124440 80 138 0.0 0.0 0.00 0.00 0.00 87 1015.4
20260903123939 78 149 0.0 0.0 0.00 0.00 0.00 89 1015.2
20260903123434 78 145 0.0 0.0 0.00 0.00 0.00 90 1015.1
20260903122932 77 142 0.0 0.0 0.00 0.00 0.00 91 1015.1
20260903122427 77 145 0.0 0.0 0.00 0.00 0.00 91 1015.1
20260903121925 76 147 0.0 0.0 0.00 0.00 0.00 92 1015.2
20260903121421 75 148 0.0 0.0 0.00 0.00 0.00 93 1015.3
20260903120918 75 152 0.0 0.0 0.00 0.00 0.00 93 1015.3
20260903120416 75 150 0.0 0.0 0.00 0.00 0.00 93 1015.3
20260903115914 75 146 0.0 0.0 0.00 0.00 0.00 92 1015.1
20260903115409 75 159 0.0 0.0 0.00 0.00 0.00 92 1015.3
20260903114903 75 163 0.0 0.0 0.00 0.00 0.00 92 1015.1
20260903114359 75 163 0.0 0.0 0.00 0.00 0.00 92 1015.0
20260903113855 75 163 0.0 0.0 0.00 0.00 0.00 91 1015.0
20260903113350 75 163 0.0 0.0 0.00 0.00 0.00 91 1015.1
20260903112846 75 163 0.0 0.0 0.00 0.00 0.00 91 1014.9
20260903112342 75 172 0.0 0.0 0.00 0.00 0.00 91 1015.0
20260903111840 75 166 0.0 0.0 0.00 0.00 0.00 91 1014.9
20260903111335 74 160 0.0 0.0 0.00 0.00 0.00 92 1015.0
20260903110831 75 178 0.0 0.0 0.00 0.00 0.00 92 1014.8
20260903110326 75 178 0.0 0.0 0.00 0.00 0.00 92 1014.8
20260903105821 76 198 0.0 0.0 0.00 0.00 0.00 90 1014.8
20260903105316 76 237 0.0 0.0 0.00 0.00 0.00 90 1014.7
20260903104815 75 224 0.0 0.0 0.00 0.00 0.00 91 1014.8
20260903104310 75 171 0.0 0.0 0.00 0.00 0.00 92 1014.7
20260903103807 76 198 0.0 0.0 0.00 0.00 0.00 91 1014.7
20260903103303 76 218 0.0 0.0 0.00 0.00 0.00 89 1014.4
20260903102758 76 174 0.0 0.0 0.00 0.00 0.00 89 1014.4
20260903102252 76 179 0.0 0.0 0.00 0.00 0.00 90 1014.4
20260903101750 76 151 0.0 0.0 0.00 0.00 0.00 90 1014.5
20260903101247 76 178 0.0 0.0 0.00 0.00 0.00 90 1014.6
20260903100742 76 151 0.0 0.0 0.00 0.00 0.00 90 1014.6
20260903100236 76 166 0.0 0.0 0.00 0.00 0.00 91 1014.4
20260903095733 76 149 0.0 0.0 0.00 0.00 0.00 91 1014.5
20260903095228 76 150 0.0 0.0 0.00 0.00 0.00 91 1014.4
20260903094723 75 147 0.0 0.0 0.00 0.00 0.00 93 1014.6
20260903094218 75 164 0.0 0.0 0.00 0.00 0.00 93 1014.4
20260903093714 75 143 0.0 0.0 0.00 0.00 0.00 94 1014.5
20260903093209 75 149 0.0 0.0 0.00 0.00 0.00 94 1014.6
20260903092708 75 149 0.0 0.0 0.00 0.00 0.00 94 1014.6
20260903092204 75 149 0.0 0.0 0.00 0.00 0.00 93 1014.6
20260903091702 75 149 0.0 0.0 0.00 0.00 0.00 92 1014.5
20260903091156 76 150 0.0 0.0 0.00 0.00 0.00 92 1014.5
20260903090652 76 153 0.0 0.0 0.00 0.00 0.00 91 1014.4
20260903090150 77 153 0.0 0.0 0.00 0.00 0.00 90 1014.5
20260903085650 77 160 0.0 0.0 0.00 0.00 0.00 89 1014.5
20260903085146 77 161 0.0 0.0 0.00 0.00 0.00 89 1014.4
20260903084643 77 133 0.0 0.0 0.00 0.00 0.00 88 1014.4
20260903084138 78 160 0.0 0.0 0.00 0.00 0.00 88 1014.4
20260903083634 78 161 0.0 0.0 0.00 0.00 0.00 88 1014.5
20260903083133 78 163 0.0 0.0 0.00 0.00 0.00 87 1014.4
20260903082628 78 148 0.0 0.0 0.00 0.00 0.00 87 1014.6
20260903082124 78 229 0.0 0.0 0.00 0.00 0.00 88 1014.3
20260903081618 78 158 0.0 0.0 0.00 0.00 0.00 88 1014.4
20260903081114 78 157 0.0 0.0 0.00 0.00 0.00 87 1014.4
20260903080610 78 155 0.0 0.0 0.00 0.00 0.00 87 1014.3
20260903080107 78 153 0.0 0.0 0.00 0.00 0.00 87 1014.4
20260903075601 78 155 0.0 0.0 0.00 0.00 0.00 87 1014.4
20260903075056 78 173 0.0 0.0 0.00 0.00 0.00 88 1014.2
20260903074555 78 157 0.0 0.0 0.00 0.00 0.00 88 1014.4
20260903074050 78 153 0.0 0.0 0.00 0.00 0.00 88 1014.3
20260903073546 78 190 0.0 0.0 0.00 0.00 0.00 88 1014.3
20260903073042 78 165 0.0 0.0 0.00 0.00 0.00 88 1014.2
20260903072537 78 188 0.0 0.0 0.00 0.00 0.00 88 1014.1
20260903072033 78 145 0.0 0.0 0.00 0.00 0.00 90 1014.1
20260903071530 77 160 0.0 0.0 0.00 0.00 0.00 90 1014.1
20260903071025 77 136 0.0 0.0 0.00 0.00 0.00 91 1014.2
20260903070524 77 142 0.0 0.0 0.00 0.00 0.00 91 1014.3
20260903070020 77 160 0.0 0.0 0.00 0.00 0.00 92 1014.4
20260903065514 77 151 0.0 0.0 0.00 0.00 0.00 92 1014.2
20260903065014 77 147 0.0 0.0 0.00 0.00 0.00 92 1014.3
20260903064513 77 147 0.0 0.0 0.00 0.00 0.00 91 1014.4
20260903064009 77 153 0.0 0.0 0.00 0.00 0.00 92 1014.4
20260903063504 77 153 0.0 0.0 0.00 0.00 0.00 92 1014.2
20260903062959 77 148 0.0 0.0 0.00 0.00 0.00 92 1014.2
20260903062454 77 148 0.0 0.0 0.00 0.00 0.00 92 1014.2
20260903061949 77 147 0.0 0.0 0.00 0.00 0.00 92 1014.3
20260903061444 78 148 0.0 0.0 0.00 0.00 0.00 92 1014.3
20260903060940 78 148 0.0 0.0 0.00 0.00 0.00 91 1014.3
20260903060434 78 148 0.0 0.0 0.00 0.00 0.00 91 1014.1
20260903055933 78 149 0.0 0.0 0.00 0.00 0.00 91 1014.1
20260903055430 78 151 0.0 0.0 0.00 0.00 0.00 91 1014.2
20260903054925 78 155 0.0 0.0 0.00 0.00 0.00 91 1014.5
20260903054419 78 148 0.0 0.0 0.00 0.00 0.00 91 1014.4
20260903053915 78 143 0.0 0.0 0.00 0.00 0.00 92 1014.3
20260903053410 78 146 0.0 0.0 0.00 0.00 0.00 92 1014.2
20260903052907 78 145 0.0 0.0 0.00 0.00 0.00 91 1014.3
20260903052402 78 150 0.0 0.0 0.00 0.00 0.00 92 1014.2
20260903051857 78 147 0.0 0.0 0.00 0.00 0.00 91 1014.1
20260903051353 78 156 0.0 0.0 0.00 0.00 0.00 92 1014.1
20260903050848 78 147 0.0 0.0 0.00 0.00 0.00 92 1014.0
20260903050347 78 147 0.0 0.0 0.00 0.00 0.00 92 1014.0
20260903045842 78 147 0.0 0.0 0.00 0.00 0.00 92 1014.0
20260903045338 78 147 0.0 0.0 0.00 0.00 0.00 92 1013.7
20260903044834 78 147 0.0 0.0 0.00 0.00 0.00 91 1013.9
20260903044329 78 148 0.0 0.0 0.00 0.00 0.00 92 1013.9
20260903043825 78 148 0.0 0.0 0.00 0.00 0.00 92 1014.0
20260903043320 78 148 0.0 0.0 0.00 0.00 0.00 92 1013.8
20260903042819 78 153 0.0 0.0 0.00 0.00 0.00 92 1013.7
20260903042314 78 153 0.0 0.0 0.00 0.00 0.00 93 1014.0
20260903041810 78 154 0.0 0.0 0.00 0.00 0.00 93 1014.1
20260903041307 78 154 0.0 0.0 0.00 0.00 0.00 93 1013.8
20260903040807 78 154 0.0 0.0 0.00 0.00 0.00 92 1013.9
20260903040306 78 154 0.0 0.0 0.00 0.00 0.00 93 1013.9
20260903035802 78 154 0.0 0.0 0.00 0.00 0.00 93 1014.0
20260903035257 78 154 0.0 0.0 0.00 0.00 0.00 93 1013.9
20260903034753 78 154 0.0 0.0 0.00 0.00 0.00 92 1014.0